Weather in Brest

France     48°23′14″N   4°28′56″W
temp.,
°C
wind,
m/s
gust,
m/s
humid.,
%
clouds,
%
prec.,
mm/h
press.,
hPa
HPBL,
m
23 june, wed
wed2323:00+11n49878 0.0 1024236
02:00+12nne488453 0.0 1024237
05:00+11n489326 0.0 1023160
08:00+12nne49855 0.0 1024536
11:00+15nne67635 0.0 10241028
14:00+17nne67565 0.0 10251152
17:00+16nne67595 0.0 1025997
20:00+14n45687 0.0 1025611
24 june, thu
thu2423:00+11nnw339136 0.0 102639
02:00+11nnw239513 0.0 102641
05:00+11n34956 0.0 102568
08:00+12n239029 0.0 1025142
11:00+16nw3369100 0.0 1025748
14:00+17wnw436194 0.0 1025922
17:00+17wnw44658 0.0 1025805
20:00+16wnw458132 0.0 1025578
25 june, fri
fri2523:00+12wnw22979 0.0 102537
02:00+13wnw239885 0.0 102441
05:00+13wnw3593100 0.0 1023102
08:00+13w3687100 0.1 1022209
11:00+16w4686100 0.1 1022527
14:00+15w5693100 0.3 1021442
17:00+15wsw4798100 1.1 1020372
20:00+16w579272 1.8 1018493
26 june, sat
sat2623:00+14wsw359899 0.3 1018173
02:00+13nnw3599100 0.8 1016320
05:00+12n5797100 2.7 1015434
08:00+11n5789100 3.5 1015381
11:00+14nnw44718 0.0 1015730
14:00+15nnw43616 0.0 10151015
17:00+13nne5583100 1.1 1014547
20:00+13nne457748 1.4 1013677
27 june, sun
sun2723:00+9n22855 0.0 101477
02:00+10wnw348717 0.0 1013100
05:00+9n11885 0.0 101231
08:00+12w25854 0.0 1012223
11:00+15w33645 0.1 10121162
14:00+17wsw436022 0.1 10121372
17:00+17w326121 0.3 10131213
20:00+15nw336722 0.4 1014672